This is the latest recevied weather packets stored in our database for station/object KD4MBW. If no packets are shown the sender has not sent any weather packets the latest 10 day(s).
| Time | Temp. | Humidity | Pressure | Rain* | Wind** | Luminosity | Snow |
|---|---|---|---|---|---|---|---|
| 1778202233 | 23.33° C | 99% | 1013.4 hPa | 0 mm | - | 0 W/m² | - |
| 1778201930 | 23.33° C | 99% | 1013.3 hPa | 0 mm | - | 0 W/m² | - |
| 1778201627 | 23.33° C | 99% | 1013.4 hPa | 0 mm | - | 0 W/m² | - |
| 1778201323 | 23.33° C | 99% | 1013.5 hPa | 0 mm | - | 0 W/m² | - |
| 1778201019 | 23.89° C | 99% | 1013.4 hPa | 0 mm | - | 0 W/m² | - |
| 1778200716 | 23.89° C | 98% | 1013.7 hPa | 0 mm | - | 0 W/m² | - |
| 1778200413 | 23.89° C | 98% | 1013.3 hPa | 0 mm | - | 1 W/m² | - |
| 1778200110 | 23.89° C | 98% | 1013.2 hPa | 0 mm | - | 2 W/m² | - |
| 1778199807 | 23.89° C | 98% | 1013.3 hPa | 0 mm | - | 3 W/m² | - |
| 1778199503 | 24.44° C | 98% | 1013.1 hPa | 0 mm | - | 5 W/m² | - |
| 1778199199 | 24.44° C | 99% | 1013 hPa | 0 mm | - | 7 W/m² | - |
| 1778198895 | 24.44° C | 99% | 1013 hPa | 0 mm | - | 9 W/m² | - |
| 1778198592 | 24.44° C | 99% | 1013.2 hPa | 0 mm | - | 13 W/m² | - |
| 1778198289 | 24.44° C | 99% | 1013.2 hPa | 0 mm | - | 19 W/m² | - |
| 1778197986 | 25° C | 99% | 1013.2 hPa | 0 mm | - | 23 W/m² | - |
| 1778197683 | 25° C | 99% | 1013 hPa | 0 mm | - | 22 W/m² | - |
| 1778197380 | 25° C | 99% | 1013.2 hPa | 0 mm | - | 27 W/m² | - |
| 1778197076 | 25° C | 99% | 1013.1 hPa | 0 mm | - | 24 W/m² | - |
| 1778196774 | 25° C | 99% | 1013.2 hPa | 0 mm | - | 30 W/m² | - |
| 1778196472 | 25° C | 99% | 1013.1 hPa | 0 mm | - | 34 W/m² | - |
| 1778196168 | 25° C | 99% | 1013.1 hPa | 0 mm | - | 32 W/m² | - |
| 1778195864 | 25° C | 99% | 1013.2 hPa | 0 mm | - | 54 W/m² | - |
| 1778195562 | 25° C | 99% | 1013 hPa | 0 mm | - | 55 W/m² | - |
| 1778195258 | 25° C | 99% | 1013.1 hPa | 0 mm | - | 43 W/m² | - |
| 1778194956 | 25° C | 99% | 1013.2 hPa | 0 mm | - | 36 W/m² | - |
* Rain latest hour (hover to see other rain measurements)
** Current wind speed in m/s (hover to see current wind gust speed)